Location: Waco, TX
(31.5480°N, 97.1670°W)
Time: 03:02:02
(UTC-05:00)

ISS - Pass Details

Date: 13 September 2017
Orbit: 401 x 407 km, 51.6° (Epoch: 22 September)

Event Time Altitude Azimuth Distance (km) Brightness Sun altitude
Rises 09:23:51 0° 310° (NW) 2,328 -0.5 27.1°
Reaches altitude 10° 09:25:58 10° 306° (NW) 1,464 -1.4 27.6°
Maximum altitude 09:29:11 53° 228° (SW) 500 -3.2 28.2°
Drops below altitude 10° 09:32:22 10° 150° (SSE) 1,454 -0.3 28.9°
Sets 09:34:28 0° 145° (SE) 2,308 0.7 29.3°
